Wind_Speed
12 7 14 17 9 8 1 3 5 8 6 6 8 18 5 12 17 28 10 23 2 14 12 7 8 16 18 26 29 31 23 24 20 16 15 15 15 15 15 14 13 13 13 13
8 10 5 8 6 6 7 1 10 8 9 5 14 18 6 5 10 16 4 9 8 14 15 11 10 17 18 31 37 38 33 31 23 18 18 18 18 16 15 14 13 12 11 12
11 4 7 13 18 15 6 14 12 6 5 10 8 18 2 7 6 6 6 12 13 10 20 6 11 13 22 29 37 38 43 33 24 19 19 18 16 16 15 12 11 10 9 9
5 9 14 15 19 5 9 14 15 12 5 3 5 7 7 6 4 5 5 8 5 5 10 9 9 16 29 30 34 39 40 31 21 19 17 15 14 15 14 10 10 9 10 11
12 8 10 16 22 4 7 17 11 9 18 11 11 7 5 6 4 4 4 3 3 4 9 8 11 16 29 31 36 38 31 21 17 16 16 14 13 15 15 12 12 11 8 10
6 8 10 7 14 11 13 7 9 7 4 9 8 0 6 4 6 3 2 4 1 3 12 16 15 25 25 26 30 35 31 26 22 17 14 10 11 15 13 12 11 10 9 8
10 15 11 9 12 7 13 9 1 3 6 2 4 5 5 4 4 4 2 4 9 7 11 10 19 26 28 29 34 35 35 28 20 15 13 9 10 12 15 14 11 10 9 9
9 10 11 9 10 7 10 10 4 1 4 4 2 4 2 4 4 5 6 7 9 10 13 19 17 27 25 31 36 34 35 22 18 14 12 10 9 12 14 16 12 10 9 10
4 6 7 6 7 3 6 7 4 10 14 7 2 0 9 5 5 6 8 8 7 11 13 17 21 21 23 31 33 30 23 18 15 12 9 10 12 12 13 16 14 8 9 11
6 5 6 7 6 16 13 5 3 4 4 3 3 3 7 8 3 7 5 7 10 10 16 18 21 20 27 30 26 25 19 17 12 12 10 11 13 13 14 13 13 10 8 10
1 0 6 5 16 19 16 14 7 8 4 5 4 1 6 8 9 12 9 10 14 15 15 21 22 23 28 29 30 23 18 17 13 15 8 11 12 12 11 12 13 11 8 6
3 7 21 21 20 14 14 9 10 4 4 7 8 4 3 6 9 13 16 15 12 16 18 20 24 28 31 34 31 25 21 17 13 14 8 11 11 10 9 10 13 11 10 7
7 7 12 4 4 20 24 18 14 12 11 5 6 5 3 6 12 14 13 10 12 12 16 22 24 27 32 37 32 28 21 20 15 15 11 12 8 6 5 8 9 12 11 9
5 7 8 12 15 15 15 14 16 15 22 22 15 8 6 8 13 11 15 16 16 10 20 20 26 31 34 32 29 24 20 19 15 12 11 14 12 7 4 5 5 9 11 13
6 15 18 19 19 20 14 14 12 21 15 17 13 10 6 7 9 10 10 11 12 19 23 24 24 25 27 28 28 27 25 20 16 14 12 10 10 7 6 5 4 5 8 10
9 13 19 17 7 9 21 11 10 7 12 12 4 5 8 9 10 12 16 19 23 18 21 22 27 24 27 25 25 25 24 22 18 13 12 10 9 6 5 5 5 7 8 8
6 8 5 10 5 3 12 11 9 8 4 1 8 7 9 7 15 15 18 20 25 28 19 22 24 27 27 26 25 23 22 21 18 13 12 8 5 6 4 2 4 7 8 9
6 2 4 10 4 4 6 7 9 12 3 4 10 15 18 23 21 18 22 24 27 29 29 27 25 33 19 21 20 21 20 20 18 13 11 10 9 5 7 1 6 6 8 8
4 3 5 2 3 9 8 3 12 12 6 14 17 21 24 22 23 27 22 28 34 35 34 29 29 30 27 27 15 16 18 19 18 13 12 12 11 8 6 4 8 6 8 7
2 3 1 8 5 3 5 6 7 12 6 19 24 26 28 30 30 28 30 34 36 37 34 31 34 27 25 18 20 21 10 14 17 15 13 12 15 12 11 8 8 7 5 8
4 7 9 4 4 5 4 11 17 5 12 23 27 28 24 23 25 29 27 26 27 25 28 28 26 26 29 24 22 21 18 13 12 16 13 15 12 18 9 5 10 6 5 4
5 1 3 1 3 3 8 14 12 13 15 18 18 17 18 21 22 29 31 33 36 37 30 24 20 19 20 19 20 20 16 17 15 14 11 14 15 17 14 11 12 11 9 6
2 3 4 1 1 4 8 13 16 14 17 21 24 25 27 28 31 35 33 34 37 33 32 24 21 18 17 19 21 18 17 16 13 16 13 11 17 18 14 13 16 17 19 16
2 4 3 2 3 4 9 13 17 19 24 23 20 20 26 25 28 29 28 29 35 30 28 29 24 20 19 17 18 20 17 19 21 19 13 11 17 21 19 19 14 9 10 17
4 1 3 1 1 3 6 9 15 19 20 19 20 22 26 30 32 33 26 29 34 27 26 26 25 23 22 21 20 20 20 19 23 18 16 16 18 18 22 20 21 14 10 13
2 4 5 6 4 2 5 9 11 15 20 21 26 28 29 35 38 38 36 39 38 30 28 26 23 22 20 19 20 20 21 21 21 22 13 16 18 17 21 24 21 23 15 16
Wind_Direction
331 324 40 30 63 78 49 259 296 312 306 184 61 58 79 307 272 255 189 191 288 220 239 263 334 342 344 341 348 342 342 349 345 342 342 335 327 323 328 322 317 321 322 322
323 298 3 36 46 331 11 218 1 345 347 234 77 59 37 327 316 158 184 189 49 242 248 250 318 327 323 339 348 347 351 350 345 343 345 342 339 337 333 332 331 329 324 328
323 27 305 332 347 337 33 15 347 293 228 155 71 65 83 18 82 3 78 193 318 273 235 282 309 304 328 338 348 342 346 345 339 344 346 342 337 337 338 341 329 324 330 338
316 333 327 334 333 12 27 32 350 276 232 169 168 130 58 51 292 6 51 210 290 224 227 262 273 312 328 337 348 341 341 335 334 336 338 339 335 334 338 336 342 345 340 347
333 329 355 31 16 56 330 356 356 89 136 89 85 93 41 357 29 90 87 171 199 210 250 236 264 306 320 336 344 335 337 337 336 339 341 339 341 346 340 344 345 345 340 344
351 1 360 353 15 7 353 58 46 39 76 61 43 174 46 40 66 118 219 198 175 348 329 275 281 329 325 333 330 337 343 342 342 337 334 343 11 8 2 358 351 347 349 333
32 29 356 11 23 4 1 31 109 358 41 95 28 30 42 65 38 51 198 258 331 325 348 303 314 336 328 326 329 332 340 333 333 330 324 331 344 356 9 4 355 349 347 345
25 20 31 323 345 343 53 47 73 218 145 148 27 32 75 32 17 26 12 326 317 308 324 310 307 322 323 328 327 333 329 323 330 330 327 336 347 353 3 3 353 344 2 10
350 56 51 36 13 24 344 32 25 116 106 89 62 15 40 298 313 330 347 346 347 300 299 305 313 325 326 324 330 327 328 325 333 333 341 345 349 354 356 354 356 350 10 22
300 235 23 335 331 16 30 34 57 86 113 116 138 51 20 18 33 353 311 300 321 303 311 326 333 321 322 330 335 330 323 328 325 319 320 345 350 356 353 351 355 359 20 26
236 283 38 345 30 14 26 69 87 96 92 137 152 158 50 340 348 332 328 326 324 326 331 335 321 317 328 332 335 330 332 330 323 325 332 342 349 2 3 6 2 7 27 27
114 106 101 94 45 66 55 59 68 115 101 98 112 92 355 349 332 321 320 326 333 335 330 325 318 326 334 334 335 340 332 326 316 311 329 340 350 4 0 356 13 12 34 36
136 141 126 206 8 63 55 70 92 86 103 82 98 100 80 342 325 327 342 335 326 333 329 321 321 328 328 330 329 326 325 322 311 311 333 319 316 334 353 344 12 21 34 37
357 59 94 106 94 63 62 48 53 78 91 96 100 86 21 0 353 341 328 323 309 337 330 321 318 319 323 326 331 328 324 319 313 305 316 305 313 310 322 319 4 15 22 33
75 91 87 91 90 74 74 59 48 77 93 94 114 99 31 358 350 329 328 307 307 307 345 335 335 325 329 329 325 321 321 315 310 295 304 313 316 317 338 323 336 359 11 15
87 115 118 117 118 91 59 57 62 89 96 117 146 63 18 346 315 312 319 313 313 306 322 338 333 330 332 334 332 322 319 314 305 287 294 304 316 309 303 312 304 348 346 346
97 148 156 156 137 202 27 45 43 83 103 314 341 333 289 276 336 328 322 310 313 309 318 318 317 324 321 328 333 335 318 310 304 282 281 285 306 340 329 15 321 321 320 329
90 94 113 146 133 60 99 88 18 1 357 324 323 310 327 338 338 336 322 309 319 331 320 317 306 308 302 310 326 338 335 313 306 282 270 289 299 271 278 352 329 336 317 314
102 79 110 137 107 143 180 285 348 330 346 358 344 332 326 321 313 309 318 319 322 318 316 315 309 304 306 307 305 331 338 332 312 293 257 270 278 268 263 252 295 329 333 328
16 331 54 163 143 238 324 303 321 318 299 327 326 322 328 326 327 335 327 320 315 310 309 305 305 313 308 310 293 287 293 317 321 299 254 264 272 277 266 263 241 305 311 341
50 66 71 112 150 211 317 324 331 274 309 318 317 320 324 337 337 328 333 348 348 337 329 324 310 311 307 313 311 299 314 297 311 321 264 246 259 276 266 258 220 267 255 264
17 66 59 140 176 218 337 341 11 352 328 315 332 341 332 342 339 351 354 349 348 346 340 342 328 320 315 313 313 309 306 276 279 300 281 240 261 267 273 258 266 274 228 236
317 55 360 334 278 308 340 354 348 343 351 356 359 351 354 343 341 343 343 338 341 343 344 341 351 344 320 313 317 312 307 303 239 272 304 259 250 254 255 255 277 285 233 236
349 351 294 323 314 314 354 333 326 4 2 359 1 351 351 352 342 339 331 330 335 334 334 341 341 345 346 327 325 320 314 295 289 236 257 283 257 254 241 249 260 266 271 234
281 314 317 314 57 296 332 340 351 348 345 346 353 355 352 348 345 341 340 334 341 338 337 332 335 332 335 337 331 324 323 308 306 260 231 253 266 252 239 256 249 262 257 256
240 260 278 296 304 312 320 352 327 329 345 347 345 346 345 336 334 335 333 335 337 344 341 339 333 323 331 331 329 330 326 328 320 301 278 287 249 253 244 242 250 237 243 248
Height
3205 3203 3199 3196 3196 3198 3198 3197 3195 3196 3196 3195 3194 3194 3197 3196 3189 3184 3184 3186 3193 3195 3193 3192 3192 3190 3190 3188 3185 3178 3170 3163 3157 3151 3147 3143 3138 3134 3130 3126 3123 3121 3118 3115
3203 3201 3198 3195 3195 3195 3194 3195 3194 3194 3191 3195 3195 3194 3194 3190 3189 3181 3184 3184 3190 3193 3193 3191 3190 3189 3186 3183 3178 3173 3166 3159 3153 3149 3144 3139 3134 3131 3128 3123 3121 3119 3116 3114
3200 3200 3198 3196 3192 3192 3191 3189 3187 3188 3187 3190 3192 3193 3194 3190 3191 3188 3184 3188 3188 3189 3188 3188 3187 3187 3183 3180 3175 3170 3163 3156 3150 3145 3141 3137 3133 3130 3126 3122 3121 3118 3115 3112
3199 3198 3197 3195 3190 3191 3189 3186 3185 3186 3186 3189 3189 3195 3194 3190 3188 3187 3188 3191 3189 3188 3187 3186 3185 3183 3182 3176 3172 3169 3161 3154 3149 3145 3140 3136 3132 3130 3125 3122 3118 3115 3113 3110
3198 3197 3196 3192 3189 3187 3188 3186 3183 3182 3184 3187 3189 3189 3191 3190 3189 3189 3189 3190 3190 3189 3187 3185 3184 3182 3180 3176 3172 3168 3160 3153 3149 3144 3138 3135 3131 3127 3122 3119 3116 3114 3112 3109
3196 3195 3193 3191 3190 3188 3187 3187 3184 3183 3183 3188 3191 3191 3193 3191 3191 3190 3190 3189 3188 3187 3186 3183 3182 3181 3177 3174 3170 3164 3157 3149 3145 3142 3138 3134 3129 3126 3121 3118 3115 3113 3110 3107
3194 3193 3192 3190 3189 3187 3185 3184 3184 3185 3186 3193 3192 3191 3192 3191 3191 3190 3188 3187 3186 3186 3185 3183 3182 3178 3176 3172 3166 3160 3153 3148 3145 3141 3137 3133 3129 3125 3120 3117 3114 3112 3109 3106
3193 3193 3192 3188 3188 3187 3185 3184 3182 3184 3189 3193 3192 3193 3193 3191 3190 3189 3188 3187 3186 3185 3184 3183 3180 3178 3174 3168 3162 3156 3152 3146 3142 3138 3135 3132 3128 3123 3119 3116 3113 3110 3107 3104
3194 3195 3193 3189 3189 3187 3185 3183 3182 3181 3187 3191 3194 3195 3194 3191 3190 3188 3187 3185 3184 3184 3183 3182 3179 3175 3170 3166 3160 3153 3147 3143 3139 3137 3134 3131 3127 3123 3119 3115 3113 3109 3106 3103
3193 3192 3191 3189 3188 3186 3183 3183 3182 3180 3186 3193 3196 3196 3195 3191 3190 3188 3187 3185 3184 3182 3181 3178 3174 3171 3169 3163 3157 3151 3147 3142 3139 3136 3133 3130 3126 3122 3118 3115 3111 3108 3105 3103
3190 3190 3192 3189 3189 3187 3184 3181 3182 3182 3184 3187 3192 3197 3195 3193 3190 3188 3186 3184 3181 3179 3176 3173 3171 3169 3165 3160 3155 3149 3144 3141 3137 3134 3131 3128 3126 3121 3118 3115 3111 3108 3104 3103
3189 3190 3191 3193 3193 3189 3185 3182 3182 3181 3186 3187 3191 3198 3196 3194 3191 3188 3185 3182 3180 3177 3175 3173 3169 3166 3160 3156 3151 3146 3142 3139 3136 3133 3130 3127 3124 3121 3118 3115 3111 3108 3104 3102
3190 3192 3193 3193 3195 3192 3187 3186 3184 3184 3185 3187 3191 3198 3196 3194 3191 3188 3184 3181 3178 3176 3173 3170 3165 3161 3157 3153 3148 3144 3140 3137 3134 3131 3128 3125 3123 3120 3118 3116 3112 3109 3105 3103
3193 3192 3190 3194 3196 3196 3193 3191 3188 3187 3188 3191 3195 3197 3196 3193 3189 3187 3184 3180 3176 3174 3170 3167 3163 3159 3156 3151 3146 3141 3138 3134 3132 3129 3127 3124 3120 3118 3116 3115 3112 3110 3107 3104
3193 3194 3194 3196 3198 3196 3196 3195 3191 3190 3192 3191 3195 3193 3193 3191 3188 3184 3181 3178 3176 3170 3168 3165 3161 3156 3151 3146 3142 3138 3134 3131 3128 3126 3124 3122 3117 3116 3114 3113 3111 3110 3108 3106
3194 3196 3196 3198 3199 3198 3197 3197 3195 3194 3193 3193 3193 3192 3191 3189 3185 3181 3178 3175 3173 3168 3164 3160 3156 3152 3148 3143 3138 3133 3130 3127 3125 3123 3121 3119 3116 3113 3113 3111 3111 3110 3109 3106
3195 3195 3196 3198 3198 3197 3197 3200 3196 3195 3194 3193 3191 3190 3187 3182 3179 3178 3175 3171 3167 3162 3156 3155 3150 3147 3143 3139 3134 3129 3126 3123 3121 3119 3118 3116 3115 3114 3111 3110 3110 3108 3107 3106
3195 3195 3195 3197 3197 3200 3203 3200 3199 3196 3194 3192 3190 3188 3185 3181 3178 3175 3171 3167 3162 3158 3154 3150 3144 3140 3136 3135 3131 3126 3122 3119 3117 3115 3115 3114 3113 3111 3110 3109 3108 3107 3105 3104
3195 3194 3195 3197 3198 3200 3201 3199 3197 3195 3192 3190 3188 3185 3182 3180 3178 3173 3166 3162 3156 3152 3148 3144 3139 3133 3127 3123 3124 3122 3119 3116 3113 3112 3111 3111 3109 3109 3108 3108 3107 3105 3104 3103
3195 3193 3194 3194 3197 3199 3198 3197 3196 3193 3190 3187 3185 3181 3177 3174 3169 3165 3160 3156 3151 3146 3140 3136 3132 3128 3124 3121 3118 3115 3114 3112 3110 3107 3107 3107 3107 3105 3105 3105 3104 3104 3103 3102
3194 3192 3192 3192 3194 3196 3195 3194 3192 3192 3194 3186 3182 3179 3175 3171 3168 3163 3158 3152 3146 3140 3134 3130 3125 3121 3117 3114 3113 3111 3106 3108 3104 3103 3102 3103 3103 3102 3102 3101 3101 3101 3101 3100
3194 3193 3192 3192 3192 3195 3193 3192 3190 3192 3188 3184 3180 3176 3172 3169 3165 3160 3154 3148 3142 3137 3131 3125 3120 3118 3114 3110 3108 3106 3104 3102 3101 3098 3096 3097 3098 3098 3098 3098 3098 3098 3098 3098
3194 3194 3193 3193 3192 3191 3190 3188 3188 3187 3184 3179 3176 3172 3169 3166 3161 3156 3151 3146 3140 3134 3128 3123 3118 3114 3110 3106 3102 3100 3098 3095 3095 3093 3092 3092 3092 3094 3094 3094 3094 3094 3093 3094
3192 3191 3191 3191 3190 3189 3189 3188 3186 3184 3181 3178 3175 3171 3166 3162 3159 3154 3148 3143 3137 3130 3125 3120 3115 3111 3106 3102 3098 3094 3092 3090 3088 3085 3086 3086 3087 3087 3088 3088 3089 3089 3089 3089
3192 3191 3190 3189 3189 3189 3188 3186 3184 3182 3180 3177 3173 3169 3164 3160 3156 3151 3144 3139 3134 3127 3122 3117 3112 3108 3104 3099 3094 3091 3087 3084 3081 3075 3078 3079 3079 3079 3081 3081 3083 3084 3085 3085
3190 3190 3189 3188 3187 3187 3186 3185 3184 3182 3178 3174 3170 3165 3161 3156 3151 3146 3140 3135 3129 3124 3118 3114 3108 3104 3100 3096 3091 3087 3083 3080 3077 3074 3070 3073 3073 3073 3074 3075 3075 3076 3077 3079